This demonstration page uses our WeatherBlox Daily Observations layout. Learn more.

Left ArrowRight Arrow

34.02893, -84.19858

Hourly Observations for November 20, 2022

Temp ( °F °C ) Dew Point ( °F °C ) Humidity (%) Winds ( mph kmh ) Pressure ( in mb ) Visibility ( mi km ) Precip ( " mm )
12:53 am 00:53 Clear 41 5 24 -4.4 51 51 WNW 8 13 30.31 1026 10 16 0.00 0.00
1:53 am 01:53 Clear 40 4.4 23 -5 50 50 WNW 9 15 30.32 1027 10 16 0.00 0.00
2:53 am 02:53 Clear 39 3.9 21 -6.1 48 48 NW 12 19 30.32 1027 10 16 0.00 0.00
3:53 am 03:53 Clear 38 3.3 17 -8.3 42 42 WNW 8 13 30.33 1027 10 16 0.00 0.00
4:53 am 04:53 Clear 37 2.8 16 -8.9 42 42 NW 9 15 30.33 1027 10 16 0.00 0.00
5:53 am 05:53 Clear 36 2.2 15 -9.4 42 42 NW 10 17 30.34 1027 10 16 0.00 0.00
6:53 am 06:53 Clear 35 1.7 15 -9.4 43 43 NW 8 13 30.35 1028 10 16 0.00 0.00
7:53 am 07:53 Sunny 35 1.7 16 -8.9 45 45 NW 7 11 30.37 1029 10 16 0.00 0.00
8:53 am 08:53 Sunny 36 2.2 17 -8.3 46 46 NW 8 13 30.39 1029 10 16 0.00 0.00
9:53 am 09:53 Sunny 37 2.8 17 -8.3 44 44 WNW 9 15 30.40 1029 10 16 0.00 0.00
10:53 am 10:53 Sunny 40 4.4 16 -8.9 37 37 NW 7 11 30.40 1029 10 16 0.00 0.00
11:53 am 11:53 Sunny 41 5 15 -9.4 34 34 undefined N/A 30.39 1029 10 16 0.00 0.00
12:53 pm 12:53 Sunny 42 5.6 15 -9.4 33 33 WNW 12 19 30.36 1028 10 16 0.00 0.00
1:53 pm 13:53 Sunny 44 6.7 16 -8.9 32 32 undefined N/A 30.34 1028 10 16 0.00 0.00
2:53 pm 14:53 Sunny 45 7.2 15 -9.4 29 29 undefined N/A 30.33 1027 10 16 0.00 0.00
3:53 pm 15:53 Sunny 46 7.8 16 -8.9 29 29 undefined N/A 30.32 1027 10 16 0.00 0.00
4:53 pm 16:53 Sunny 44 6.7 16 -8.9 32 32 undefined N/A 30.33 1027 10 16 0.00 0.00
5:53 pm 17:53 Mostly Clear 41 5 16 -8.9 36 36 undefined N/A 30.36 1028 10 16 0.00 0.00
6:53 pm 18:53 Clear 39 3.9 15 -9.4 37 37 Calm 30.37 1029 10 16 0.00 0.00
7:53 pm 19:53 Clear 33 0.6 19 -7.2 56 56 Calm 30.39 1029 10 16 0.00 0.00
8:53 pm 20:53 Clear 31 -0.6 20 -6.7 63 63 Calm 30.41 1030 10 16 0.00 0.00
9:53 pm 21:53 Clear 29 -1.7 19 -7.2 66 66 Calm 30.42 1030 10 16 0.00 0.00
10:53 pm 22:53 Clear 29 -1.7 18 -7.8 63 63 Calm 30.42 1030 10 16 0.00 0.00
11:53 pm 23:53 Clear 27 -2.8 20 -6.7 74 74 Calm 30.42 1030 10 16 0.00 0.00

Powered by AerisWeather